"TOA5","AWS1","CR1000","7964","CR1000.Std.14","CPU:AWS1_114.CR1","64363","TBL110"
"TIMESTAMP","RECORD","Wind_spd_WVc(1)","Wind_spd_WVc(2)","Air_Temp_Avg","Humidity_Avg","SW_upper_Wm2_Avg","Rain_Tot","Press_Avg","Issui_Tot","Depth_cm","SR50A_Raw","Quality","Ground_Temp_Avg(1)","Ground_Temp_Avg(2)","SW_lower_Wm2_Avg","Albedo_Avg","SWC_per(1)","SWC_per(2)","Period(1)","Period(2)"
"TS","RN","","","","","","","","","","","","","","","","","","",""
"","","WVc","WVc","Avg","Avg","Avg","Tot","Avg","Tot","Smp","Smp","Smp","Avg","Avg","Avg","Avg","Smp","Smp","Smp","Smp"
"2018-05-29 00:00:00",342637,0.057,182.7,10.26,99.9,0,0,868.1578,0,1.798,3.103,230,14.96,14.31,0.6823505,0,48,55.66,32.8,34.67
"2018-05-29 00:10:00",342638,0.009,177,10.53,97.4,0,0,868.188,0,1.967,3.103,214,14.98,14.3,0.7771215,0,48,55.66,32.8,34.67
"2018-05-29 00:20:00",342639,0.021,106.5,10.52,99.8,0.003931627,0,868.1949,0,2.037,3.099,230,14.97,14.3,0.8832648,0.064,48,55.66,32.8,34.67
"2018-05-29 00:30:00",342640,0.008,208.3,10.97,93.7,0,0,868.1938,0,1.527,3.104,227,14.92,14.29,1.065225,0,48,55.66,32.8,34.67
"2018-05-29 00:40:00",342641,0.193,178.7,10.35,97.2,0,0,868.1223,0,2.292,3.101,226,14.89,14.29,0.1478426,0,48,55.66,32.8,34.67
"2018-05-29 00:50:00",342642,0.116,194.3,10.28,100,0,0,867.9267,0,2.109,3.099,215,14.85,14.26,0.4435278,0,48,55.66,32.8,34.67
"2018-05-29 01:00:00",342643,0.122,19.6,10.86,99.8,0,0,867.8542,0,1.648,3.104,222,14.78,14.26,0.8301932,0,48,55.66,32.8,34.67
"2018-05-29 01:10:00",342644,0.059,140.5,10.07,99.5,0,0,867.7318,0,1.623,3.109,226,14.81,14.23,0.003790837,0,48,55.6,32.8,34.65
"2018-05-29 01:20:00",342645,0.397,182.4,9.74,100,0,0,867.6741,0,0.837,3.116,234,14.75,14.2,0.1819602,0,48,55.6,32.8,34.65
"2018-05-29 01:30:00",342646,0.256,160.3,9.64,100,0,0,867.6848,0,1.594,3.11,240,14.71,14.19,0,0,48,55.66,32.8,34.67
"2018-05-29 01:40:00",342647,0.502,184.7,9.51,100,0,0,867.5026,0,1.288,3.113,232,14.71,14.19,0.1213068,0,48,55.66,32.8,34.67
"2018-05-29 01:50:00",342648,0.136,155.2,9.59,100,0,0,867.6844,0,0.984,3.116,244,14.63,14.2,0.2501952,0,48,55.66,32.8,34.67
"2018-05-29 02:00:00",342649,0.151,184.5,9.42,100,0,0,867.5074,0,1.227,3.116,273,14.64,14.22,0.2047052,0,48,55.66,32.8,34.67
"2018-05-29 02:10:00",342650,0.25,179.3,9.22,100,0,0,867.4749,0,2.219,3.106,266,14.6,14.23,0.3184303,0,48.05,55.6,32.81,34.65
"2018-05-29 02:20:00",342651,0.507,181.3,9.04,100,0,0,867.4811,0,2.035,3.109,233,14.52,14.24,0.01895418,0,48,55.6,32.8,34.65
"2018-05-29 02:30:00",342652,0.521,186.5,9.04,100,0,0,867.4786,0,1.987,3.109,216,14.57,14.24,0.4018287,0,48,55.66,32.8,34.67
"2018-05-29 02:40:00",342653,0.473,187.5,9.15,100,0,0,867.4758,0,1.686,3.111,214,14.49,14.24,0.4549004,0,48,55.6,32.8,34.65
"2018-05-29 02:50:00",342654,0.333,188.1,9.27,100,0,0,867.4941,0,1.458,3.113,210,14.46,14.24,0.4549004,0,48,55.6,32.8,34.65
"2018-05-29 03:00:00",342655,0.542,186.5,9.24,100,0,0,867.4948,0,1.173,3.117,212,14.48,14.24,0.4549004,0,48,55.6,32.8,34.65
"2018-05-29 03:10:00",342656,0.614,186,9.01,100,0,0,867.4863,0,0.51,3.124,218,14.39,14.2,0.3980378,0,48.05,55.66,32.81,34.67
"2018-05-29 03:20:00",342657,0.634,182.3,9.05,100,0,0,867.3929,0,-0.933,3.137,214,14.37,14.16,0.4549004,0,48,55.6,32.8,34.65
"2018-05-29 03:30:00",342658,0.556,184.8,9.23,100,0,0,867.2396,0,-1.869,3.145,209,14.38,14.12,0.4852271,0,48,55.6,32.8,34.65
"2018-05-29 03:40:00",342659,0.653,184.2,9.28,100,0,0,867.2526,0,-1.315,3.141,213,14.29,14.11,0.4549004,0,48,55.6,32.8,34.65
"2018-05-29 03:50:00",342660,0.664,183.7,9.1,100,0,0,867.2473,0,1.735,3.111,267,14.29,14.11,0.4549004,0,48.05,55.6,32.81,34.65
"2018-05-29 04:00:00",342661,0.646,183.9,9.16,100,0,0,867.2498,0,2.321,3.105,266,14.31,14.12,0.462482,0,48,55.55,32.8,34.64
"2018-05-29 04:10:00",342662,0.493,183.9,9.43,100,0,0,867.3041,0,2.001,3.106,244,14.21,14.12,0.8718923,0,48,55.6,32.8,34.65
"2018-05-29 04:20:00",342663,0.396,184.1,9.8,90.8,0,0,867.4216,0,2.04,3.103,241,14.18,14.14,1.292675,0,48.05,55.6,32.81,34.65
"2018-05-29 04:30:00",342664,0.115,192.7,10.21,81.8,0,0,867.4799,0,1.686,3.106,233,14.22,14.15,1.671759,0,48.05,55.55,32.81,34.64
"2018-05-29 04:40:00",342665,0.435,192.1,10.11,79.86,0,0,867.4794,0,1.506,3.108,222,14.13,14.15,1.49738,0,48.05,55.6,32.81,34.65
"2018-05-29 04:50:00",342666,0.283,194.3,10.52,74.38,0.1847865,0,867.4745,0,0.91,3.111,230,14.11,14.15,2.183522,0.978,48,55.6,32.8,34.65
"2018-05-29 05:00:00",342667,0.351,193.1,10.38,75.73,4.32479,0,867.4432,0,0.803,3.113,216,14.12,14.15,2.088751,0.61,48,55.6,32.8,34.65
"2018-05-29 05:10:00",342668,0.466,190.7,10.5,73.47,11.2012,0,867.4207,0,-0.774,3.128,200,14.11,14.13,3.028878,0.273,48.05,55.6,32.81,34.65
"2018-05-29 05:20:00",342669,0.446,189.3,10.6,72.19,30.13985,0,867.4457,0,-0.847,3.128,199,14.05,14.11,5.788607,0.199,48,55.6,32.8,34.65
"2018-05-29 05:30:00",342670,0.393,190.2,10.84,71.49,37.57456,0,867.4623,0,-0.77,3.127,196,14,14.09,6.550565,0.174,48,55.55,32.8,34.64
"2018-05-29 05:40:00",342671,0.149,190.2,11.04,68.97,53.24602,0,867.501,0,-0.503,3.122,200,14.02,14.09,8.92742,0.168,48.05,55.55,32.81,34.64
"2018-05-29 05:50:00",342672,0.376,189.8,11.24,67.74,60.80654,0,867.4141,0,-0.031,3.115,212,14.03,14.07,9.640097,0.158,48.05,55.6,32.81,34.65
"2018-05-29 06:00:00",342673,0.056,189.9,12.36,59.09,73.74946,0,867.4506,0,-1.979,3.126,197,14,14.06,12.11172,0.164,48.05,55.55,32.81,34.64
"2018-05-29 06:10:00",342674,0.124,302,13.15,55.45,76.07304,0,867.6156,0,-2.077,3.126,197,13.97,14.05,12.55525,0.165,48.05,55.55,32.81,34.64
"2018-05-29 06:20:00",342675,0.044,207.2,12.52,64.42,84.52998,0,867.6595,0,-1.489,3.125,209,13.91,14.04,12.35813,0.147,48,55.55,32.8,34.64
"2018-05-29 06:30:00",342676,0.002,206.9,12.44,65.56,117.4524,0,867.6741,0,-0.354,3.113,214,13.9,14.05,17.32396,0.147,48.05,55.55,32.81,34.64
"2018-05-29 06:40:00",342677,0.07,206.8,12.54,67.94,142.1465,0,867.7921,0,0.28,3.105,220,13.88,14.02,21.56844,0.152,48.05,55.55,32.81,34.64
"2018-05-29 06:50:00",342678,0.036,206.8,13.39,56.43,127.9052,0,867.7521,0,-1.597,3.118,211,13.86,14,19.42587,0.152,48.05,55.55,32.81,34.64
"2018-05-29 07:00:00",342679,0,0,13.89,55.79,135.7549,0,867.8848,0,-2.173,3.124,230,13.82,13.96,20.36781,0.15,48.05,55.55,32.81,34.64
"2018-05-29 07:10:00",342680,0.109,307.4,13.74,56.09,151.7451,0,867.9122,0,0.35,3.099,221,13.8,13.93,22.37472,0.147,48,55.49,32.8,34.63
"2018-05-29 07:20:00",342681,0.108,16.73,13.76,61.94,176.4455,0,867.9122,0,-2.715,3.128,217,13.79,13.9,26.47801,0.149,48,55.55,32.8,34.64
"2018-05-29 07:30:00",342682,0.014,12.09,14.1,58.76,219.9401,0,867.9122,0,1.448,3.086,294,13.74,13.89,33.40881,0.152,48,55.55,32.8,34.64
"2018-05-29 07:40:00",342683,0.019,97.2,14.36,64.28,241.7209,0,867.9122,0,2.378,3.076,224,13.77,13.89,37.69844,0.155,48.05,55.49,32.81,34.63
"2018-05-29 07:50:00",342684,0.049,97.4,14.54,56.37,197.3279,0,867.9122,0,2.078,3.078,237,13.8,13.9,28.85739,0.146,48,55.49,32.8,34.63
"2018-05-29 08:00:00",342685,0.124,312.9,14.45,60.66,201.7063,0,867.9122,0,-1.014,3.11,201,13.8,13.88,29.82751,0.148,48.05,55.55,32.81,34.64
"2018-05-29 08:10:00",342686,0.339,1.057,14.34,61.75,259.7212,0,867.9143,0,-0.851,3.107,212,13.8,13.83,40.76413,0.157,48.05,55.49,32.81,34.63
"2018-05-29 08:20:00",342687,0.133,333.2,14.68,62.06,272.7934,0,867.9059,0,0.245,3.094,237,13.8,13.8,42.48837,0.155,48.05,55.55,32.81,34.64
"2018-05-29 08:30:00",342688,0.035,235.1,15.09,61.67,291.8238,0,867.8132,0,-1.899,3.113,210,13.84,13.8,46.21729,0.158,48,55.55,32.8,34.64
"2018-05-29 08:40:00",342689,0.19,330.3,15.14,65.15,321.0573,0,867.6636,0,-31.5,3.401,242,13.82,13.8,51.51507,0.16,48,55.55,32.8,34.64
"2018-05-29 08:50:00",342690,0.354,2.869,15.13,65.66,256.294,0,867.6594,0,0.655,3.09,231,13.88,13.79,40.50644,0.157,48,55.55,32.8,34.64
"2018-05-29 09:00:00",342691,0.215,311,14.89,66.32,189.4359,0,867.6594,0,-32.05,3.41,256,13.88,13.75,28.95591,0.153,48,55.55,32.8,34.64
"2018-05-29 09:10:00",342692,0.154,289.6,14.62,69.4,242.0192,0,867.7689,0,-0.693,3.105,330,13.89,13.8,38.93757,0.161,48.05,55.55,32.81,34.64
"2018-05-29 09:20:00",342693,0.025,281.6,14.89,68.87,356.8661,0,867.8279,0,-32.37,3.41,206,13.87,13.8,58.30972,0.163,48,55.55,32.8,34.64
"2018-05-29 09:30:00",342694,0.17,162.2,15.25,67.15,384.3034,0,867.6868,0,9.26,3.004,332,13.88,13.77,61.11399,0.159,48.05,55.55,32.81,34.64
"2018-05-29 09:40:00",342695,0.437,80.4,15.43,64.7,425.9173,0,867.6594,0,-30.88,3.393,226,13.95,13.75,69.50024,0.163,48,55.49,32.8,34.63
"2018-05-29 09:50:00",342696,0.435,9.57,16.28,61.69,624.2592,0,867.6569,0,-30.99,3.39,209,13.93,13.71,103.7805,0.165,48,55.49,32.8,34.63
"2018-05-29 10:00:00",342697,0.292,2.24,16.72,60.84,456.3456,0,867.6498,0,-3.074,3.116,218,13.92,13.68,73.46411,0.161,48,55.49,32.8,34.63
"2018-05-29 10:10:00",342698,0.341,342.6,16.72,58.54,363.6223,0,867.6514,0,2.275,3.065,291,14.04,13.68,57.92318,0.159,48,55.49,32.8,34.63
"2018-05-29 10:20:00",342699,0.518,13.33,16.91,55.73,457.5168,0,867.6472,0,-0.237,3.088,264,14.06,13.71,75.63173,0.165,47.95,55.49,32.78,34.63
"2018-05-29 10:30:00",342700,0.355,33.25,17.08,55.36,476.5905,0,867.6382,0,0.341,3.081,220,14,13.71,78.64442,0.165,47.95,55.49,32.78,34.63
"2018-05-29 10:40:00",342701,0.254,10.72,17.84,57.21,591.3392,0,867.5299,0,0.572,3.076,251,14.07,13.68,97.99004,0.165,48,55.49,32.8,34.63
"2018-05-29 10:50:00",342702,0.391,355.9,17.81,54.93,535.3405,0,867.4122,0,-34.62,3.415,306,14.05,13.67,87.637,0.164,48,55.49,32.8,34.63
"2018-05-29 11:00:00",342703,0.331,339.2,18.35,53.9,681.6145,0,867.3909,0,2.564,3.054,326,14.12,13.67,112.8735,0.165,48,55.49,32.8,34.63
"2018-05-29 11:10:00",342704,0.305,227.2,19.01,53.11,830.3398,0,867.3704,0,1.942,3.055,400,14.15,13.65,138.4591,0.166,48,55.49,32.8,34.63
"2018-05-29 11:20:00",342705,0.516,345.9,18.99,53.34,703.6778,0,867.3242,0,4.32,3.035,346,14.24,13.63,115.555,0.164,47.95,55.49,32.78,34.63
"2018-05-29 11:30:00",342706,0.328,335.4,19.19,54.54,928.0876,0,867.176,0,-0.297,3.074,256,14.19,13.64,158.0766,0.17,48,55.49,32.8,34.63
"2018-05-29 11:40:00",342707,0.356,336.4,19.81,51.81,949.4703,0,867.078,0,-3.731,3.107,205,14.27,13.62,159.4127,0.168,47.95,55.49,32.78,34.63
"2018-05-29 11:50:00",342708,0.584,327.9,19.69,50.24,1047.922,0,867.0678,0,2.486,3.047,272,14.26,13.58,178.7535,0.171,47.95,55.43,32.78,34.61
"2018-05-29 12:00:00",342709,0.385,293.9,19.5,50.13,755.4297,0,866.9215,0,3.151,3.046,344,14.35,13.54,119.6054,0.156,47.95,55.43,32.78,34.61
"2018-05-29 12:10:00",342710,0.537,291.1,18.79,51.65,723.6786,0,866.8201,0,0.769,3.069,305,14.43,13.53,116.4405,0.16,47.89,55.43,32.77,34.61
"2018-05-29 12:20:00",342711,0.62,280.1,19.18,48.8,1009.045,0,866.8245,0,2.122,3.05,252,14.49,13.55,174.9122,0.173,47.89,55.43,32.77,34.61
"2018-05-29 12:30:00",342712,0.412,269.7,20.09,45.65,1000.697,0,866.8297,0,-0.706,3.075,253,14.57,13.56,172.6831,0.172,47.89,55.43,32.77,34.61
"2018-05-29 12:40:00",342713,0.501,276.7,20.41,45.5,942.288,0,866.6168,0,1.246,3.058,233,14.62,13.55,161.1218,0.17,47.95,55.43,32.78,34.61
"2018-05-29 12:50:00",342714,0.49,273.3,20.08,48.07,896.9252,0,866.5783,0,1.253,3.057,228,14.7,13.56,150.8873,0.168,47.89,55.43,32.77,34.61
"2018-05-29 13:00:00",342715,0.391,253,20.44,49.35,735.6656,0,866.5778,0,10.34,2.968,369,14.79,13.54,119.0204,0.161,47.84,55.43,32.76,34.61
"2018-05-29 13:10:00",342716,0.323,61.58,20.13,52.58,509.6971,0,866.7999,0,-30.04,3.36,233,14.89,13.54,77.32456,0.151,47.84,55.37,32.76,34.6
"2018-05-29 13:20:00",342717,0.372,328.8,19.61,54.64,559.3909,0,866.8181,0,6.147,3.012,307,14.95,13.54,88.76089,0.158,47.84,55.43,32.76,34.61
"2018-05-29 13:30:00",342718,0.364,281.1,19.54,56.02,684.2734,0,866.8461,0,2.639,3.047,323,15.05,13.54,111.5316,0.163,47.84,55.37,32.76,34.6
"2018-05-29 13:40:00",342719,0.429,11.97,19.45,57.39,660.7606,0,866.8685,0,3.143,3.041,225,15.14,13.54,108.7699,0.164,47.84,55.37,32.76,34.6
"2018-05-29 13:50:00",342720,0.694,24.89,19.48,56.76,797.8824,0,866.8487,0,2.125,3.051,253,15.25,13.56,135.1232,0.169,47.79,55.37,32.74,34.6
"2018-05-29 14:00:00",342721,0.664,18.84,19.12,58.1,496.9377,0,866.9481,0,1.972,3.057,240,15.3,13.56,76.79968,0.154,47.79,55.37,32.74,34.6
"2018-05-29 14:10:00",342722,0.411,320.7,19.12,59.22,681.1724,0,867.041,0,3.311,3.042,235,15.36,13.57,113.1719,0.165,47.79,55.37,32.74,34.6
"2018-05-29 14:20:00",342723,0.412,304.2,19.77,57.74,762.7752,0,866.8939,0,3.326,3.038,410,15.44,13.59,124.7153,0.163,47.79,55.37,32.74,34.6
"2018-05-29 14:30:00",342724,0.415,314.8,19.61,55.1,533.2308,0,866.8514,0,3.357,3.042,282,15.51,13.62,80.10993,0.149,47.73,55.37,32.73,34.6
"2018-05-29 14:40:00",342725,0.267,227.5,18.97,54.19,491.7261,0,866.8485,0,0.865,3.067,236,15.59,13.63,71.1362,0.144,47.73,55.37,32.73,34.6
"2018-05-29 14:50:00",342726,0.232,267.7,19.32,55.44,608.2661,0,866.8369,0,-0.939,3.081,213,15.65,13.63,84.95334,0.14,47.73,55.37,32.73,34.6
"2018-05-29 15:00:00",342727,0.43,314.2,19.15,57.24,316.9766,0,866.8343,0,-32.28,3.387,210,15.68,13.63,41.93118,0.132,47.73,55.32,32.73,34.59
"2018-05-29 15:10:00",342728,0.351,52.54,18.95,58.86,416.8221,0,866.8494,0,2.611,3.051,321,15.78,13.63,50.77604,0.122,47.73,55.37,32.73,34.6
"2018-05-29 15:20:00",342729,0.381,90.2,18.65,58.82,321.3085,0,866.8622,0,1.766,3.061,256,15.85,13.63,34.61366,0.111,47.68,55.32,32.71,34.59
"2018-05-29 15:30:00",342730,0.36,41.7,18.23,60.45,200.2637,0,866.9217,0,12.35,2.961,422,15.88,13.63,26.29184,0.131,47.68,55.32,32.71,34.59
"2018-05-29 15:40:00",342731,0.294,336.5,17.8,61.14,164.9291,0,866.8815,0,3.76,3.044,354,15.98,13.63,25.79519,0.157,47.62,55.32,32.7,34.59
"2018-05-29 15:50:00",342732,0.314,299.2,17.95,61.59,166.1038,0,866.8958,0,2.678,3.054,269,16.03,13.66,27.52314,0.166,47.62,55.32,32.7,34.59
"2018-05-29 16:00:00",342733,0.194,313.2,18.15,60.58,150.1047,0,866.8998,0,1.646,3.064,283,16.03,13.68,23.42683,0.156,47.62,55.32,32.7,34.59
"2018-05-29 16:10:00",342734,0.404,99.2,17.95,62.3,115.5345,0,866.9008,0,-1.515,3.096,273,16.06,13.72,16.39732,0.141,47.57,55.32,32.69,34.59
"2018-05-29 16:20:00",342735,0.202,265.5,17.57,63.74,136.9232,0,866.9011,0,-2.149,3.104,200,16.15,13.72,19.75866,0.144,47.57,55.26,32.69,34.57
"2018-05-29 16:30:00",342736,0.304,122.8,17.44,64.49,164.7339,0,866.8674,0,-1.761,3.1,205,16.14,13.71,25.99625,0.158,47.57,55.26,32.69,34.57
"2018-05-29 16:40:00",342737,0.165,33.83,17.66,64.88,154.3855,0,867.0338,0,2.66,3.056,287,16.15,13.71,24.37433,0.157,47.57,55.26,32.69,34.57
"2018-05-29 16:50:00",342738,0.358,343.3,17.34,65.5,146.1987,0,867.1539,0,2.657,3.059,253,16.24,13.8,22.36966,0.152,47.57,55.26,32.69,34.57
"2018-05-29 17:00:00",342739,0.209,45.31,17.13,66.44,151.7286,0,867.1644,0,4.901,3.037,240,16.23,13.86,24.15454,0.159,47.57,55.26,32.69,34.57
"2018-05-29 17:10:00",342740,0.375,84.1,17.02,67.35,125.2188,0,867.1896,0,3.464,3.053,219,16.23,13.86,18.99697,0.151,47.57,55.26,32.69,34.57
"2018-05-29 17:20:00",342741,0.296,57.95,16.37,69.01,67.31789,0,867.0654,0,3.636,3.055,243,16.23,13.88,8.594679,0.127,47.52,55.26,32.67,34.57
"2018-05-29 17:30:00",342742,0.326,29.62,15.97,71.15,60.60104,0,867.2908,0,4.198,3.05,274,16.24,13.89,8.708364,0.144,47.52,55.26,32.67,34.57
"2018-05-29 17:40:00",342743,0.087,104.5,15.9,72.2,63.85531,0,867.3856,0,0.588,3.086,234,16.24,13.89,9.678487,0.151,47.52,55.2,32.67,34.56
"2018-05-29 17:50:00",342744,0.025,317.8,15.71,72.37,62.19674,0,867.3371,0,3.002,3.063,262,16.24,13.86,9.466273,0.152,47.52,55.2,32.67,34.56
"2018-05-29 18:00:00",342745,0.062,315.3,15.5,73.29,55.85326,0,867.2191,0,2.606,3.068,229,16.26,13.88,8.435518,0.151,47.46,55.26,32.66,34.57
"2018-05-29 18:10:00",342746,0.103,63.17,15.36,73.95,50.05216,0,867.4045,0,9.66,3.001,530,16.29,13.92,7.658662,0.153,47.46,55.26,32.66,34.57
"2018-05-29 18:20:00",342747,0,0,15.18,75.24,27.67313,0,867.4487,0,10.57,2.993,295,16.32,13.91,3.872911,0.139,47.46,55.2,32.66,34.56
"2018-05-29 18:30:00",342748,0.298,148.2,14.89,75.56,18.83785,0,867.5056,0,11.34,2.986,269,16.32,13.95,2.743628,0.146,47.46,55.26,32.66,34.57
"2018-05-29 18:40:00",342749,0.092,97.1,14.79,76.44,11.28384,0,867.4171,0,11.37,2.987,261,16.32,13.97,1.769716,0.156,47.46,55.26,32.66,34.57
"2018-05-29 18:50:00",342750,0.143,12.83,14.59,77.05,3.572628,0,867.5624,0,11.2,2.99,259,16.27,13.97,0.4888508,0.139,47.46,55.26,32.66,34.57
"2018-05-29 19:00:00",342751,0.033,113.2,14.42,78.07,0.8685926,0,867.4108,0,11.17,2.991,280,16.26,13.98,0.1667398,0.096,47.41,55.2,32.65,34.56
"2018-05-29 19:10:00",342752,0.186,135,14.2,79.62,0,0,867.5793,0,11.33,2.991,294,16.25,14.04,0,0,47.41,55.2,32.65,34.56
"2018-05-29 19:20:00",342753,0.32,87.7,14.03,79.88,0,0,867.5687,0,11.64,2.988,358,16.23,14.06,0,0,47.46,55.2,32.66,34.56
"2018-05-29 19:30:00",342754,0.11,126.2,14.01,80,0,0,867.6109,0,10.36,3,437,16.22,14.09,0,0,47.41,55.2,32.65,34.56
"2018-05-29 19:40:00",342755,0.157,116.7,13.88,80.9,0,0,867.6614,0,11,2.996,404,16.22,14.11,0,0,47.41,55.2,32.65,34.56
"2018-05-29 19:50:00",342756,0.159,97.1,13.66,82.3,0,0,867.7626,0,8.06,3.025,375,16.17,14.11,0,0,47.41,55.2,32.65,34.56
"2018-05-29 20:00:00",342757,0.028,70.64,13.6,83.4,0,0,867.91,0,3.47,3.07,238,16.16,14.11,0.03789541,0,47.41,55.2,32.65,34.56
"2018-05-29 20:10:00",342758,0,0,13.65,82.6,0,0,867.9732,0,-36.9,3.463,316,16.2,14.14,0.3562168,0,47.41,55.2,32.65,34.56
"2018-05-29 20:20:00",342759,0.004,56.94,13.55,83.3,0,0,868.1101,0,10.78,3,449,16.15,14.15,0.1591607,0,47.41,55.2,32.65,34.56
"2018-05-29 20:30:00",342760,0.005,57.31,13.25,86.6,0,0,868.0869,0,5.753,3.05,310,16.06,14.15,0,0,47.41,55.15,32.65,34.55
"2018-05-29 20:40:00",342761,0.01,140.7,13.09,88.4,0,0,868.1649,0,2.32,3.084,203,16.07,14.16,0,0,47.36,55.15,32.63,34.55
"2018-05-29 20:50:00",342762,0.144,139.4,13.01,90.2,0,0,868.1649,0,4.519,3.063,241,16.04,14.15,0,0,47.41,55.15,32.65,34.55
"2018-05-29 21:00:00",342763,0.18,131.3,12.98,90.9,0,0,868.2133,0,3.858,3.069,229,15.98,14.16,0.223584,0,47.36,55.15,32.63,34.55
"2018-05-29 21:10:00",342764,0.377,131,13.13,88.8,0,0,868.1649,0,2.887,3.078,220,16.02,14.19,0.4016931,0,47.41,55.15,32.65,34.55
"2018-05-29 21:20:00",342765,0.138,187.4,13.09,89.3,0,0,868.1649,0,2.626,3.081,233,15.96,14.21,0.2880128,0,47.36,55.15,32.63,34.55
"2018-05-29 21:30:00",342766,0,0,13.06,89.3,0,0,868.1649,0,2.173,3.084,252,15.89,14.25,0.2690649,0,47.36,55.15,32.63,34.55
"2018-05-29 21:40:00",342767,0.09,73.53,13.35,84.3,0,0,868.1585,0,11.59,2.992,331,15.89,14.27,0.5836185,0,47.36,55.15,32.63,34.55
"2018-05-29 21:50:00",342768,0.05,170.8,13.64,77.68,0,0,868.1269,0,12.13,2.985,347,15.89,14.25,0.7958362,0,47.36,55.15,32.63,34.55
"2018-05-29 22:00:00",342769,0.43,145.3,13.51,75.91,0,0,867.9352,0,-28.1,3.377,280,15.84,14.24,0.5267676,0,47.36,55.15,32.63,34.55
"2018-05-29 22:10:00",342770,0.607,145.8,14.04,65.34,0.02751303,0,868.0995,0,13,2.972,469,15.82,14.25,0.9360621,0.142,47.36,55.15,32.63,34.55
"2018-05-29 22:20:00",342771,0.445,250,14.71,59.12,0.2201031,0,868.1922,0,8.37,3.019,390,15.8,14.22,0.9170974,1.62,47.36,55.15,32.63,34.55
"2018-05-29 22:30:00",342772,0.129,347.5,13.75,79.25,0,0,868.2196,0,5.645,3.049,345,15.75,14.23,0,0,47.36,55.09,32.63,34.53
"2018-05-29 22:40:00",342773,0.022,79.75,13.44,80.9,0,0,868.1437,0,0.39,3.101,309,15.72,14.26,0,0,47.3,55.09,32.62,34.53
"2018-05-29 22:50:00",342774,0.015,289.7,13.42,82,0,0,868.1649,0,0.981,3.095,391,15.71,14.28,0,0,47.36,55.09,32.63,34.53
"2018-05-29 23:00:00",342775,0.153,293.1,13.3,83.7,0,0,868.0995,0,1.873,3.087,463,15.68,14.29,0,0,47.36,55.09,32.63,34.53
"2018-05-29 23:10:00",342776,0.256,257.1,13.15,86,0,0,867.9121,0,2.275,3.084,521,15.64,14.29,0,0,47.36,55.09,32.63,34.53
"2018-05-29 23:20:00",342777,0.095,305.7,13.08,88.5,0,0,867.9079,0,2.323,3.084,503,15.62,14.32,0,0,47.3,55.09,32.62,34.53
"2018-05-29 23:30:00",342778,0.003,311.8,12.95,88.8,0,0,867.8447,0,3.182,3.077,288,15.61,14.34,0,0,47.36,55.09,32.63,34.53
"2018-05-29 23:40:00",342779,0.069,94.6,12.89,89.5,0,0,867.7078,0,2.669,3.082,330,15.58,14.35,0.02273727,0,47.36,55.09,32.63,34.53
"2018-05-29 23:50:00",342780,0.044,318.3,12.83,89.4,0,0,867.7689,0,3.378,3.076,328,15.55,14.35,0.1098982,0,47.36,55.09,32.63,34.53
